Tracking 17884 objects as of 6-December-2016
HD Live streaming from Space Station
objects crossing your sky now

COSMOS 970 DEB

Track COSMOS 970 DEB now!
10-day predictions


NORAD ID: 10563
Int'l Code: 1977-121E
Perigee: 866.9 km
Apogee: 1,032.7 km
Inclination: 65.8 °
Period: 103.9 minutes
Semi major axis: 7320 km
RCS: 0.0231 m2 (small)
Launch date: December 21, 1977
Source: Commonwealth of Independent States (former USSR) (CIS)
Launch site: TYURATAM MISSILE AND SPACE COMPLEX (TTMTR)

Note: This is SATELLITE DEBRIS
Your satellite tracking list
Your tracking list is empty





NASA's NSSDC Master Catalog

Two Line Element Set (TLE):
1 10563U 77121E   16339.82761925 +.00000289 +00000-0 +30708-3 0  9995
2 10563 065.8474 147.4767 0113252 260.7020 098.1228 13.86079476954142
Source of the keplerian elements: AFSPC